Location: Cincinnati Observatory Center
(39.1389°N, 84.4225°W)
Time: 09:44:53
(UTC-04:00)

Amateur Radio Satellites - All Passes

Search period start: 22 October 2014 09:14
Search period end: 23 October 2014 09:14
Location: Cincinnati Observatory Center, 39.1389°N, 84.4225°W

Satellite Date Start Highest point End Downlink Frequencies (MHz)
Time Altitude Azimuth
JAS-2 22 Oct 09:44:49 09:46:44 11° 308° (NW) 09:48:39 435.800 - 435.900 CW/SSB, 435.910 FM
Saudisat 1A 22 Oct 09:54:01 09:58:07 39° 307° (NW) 10:02:16 436.775 MHz
UKube-1 22 Oct 10:13:42 10:15:54 14° 92° (E) 10:18:04 145.840 MHz, 145.915 MHz
HO-68 22 Oct 10:20:41 10:27:43 54° 101° (E) 10:34:41 435.675 MHz FM
RS-15 22 Oct 10:39:47 10:49:08 32° 255° (WSW) 10:58:51 29.354 - 29.394 USB, Beacon 29.352 USB
PANSAT 22 Oct 10:41:09 10:43:31 16° 175° (S) 10:45:52 not established
FUNcube-1 22 Oct 10:48:44 10:50:22 12° 90° (E) 10:51:59 145.950 - 145.970 MHz USB
MaSat-1 22 Oct 10:54:56 10:57:35 79° 65° (ENE) 11:00:00 437.345 MHz
Oscar 11 22 Oct 10:56:20 11:00:22 38° 98° (E) 11:04:22 145.825 FM, Beacon 2401.500 USB
ZACube-1 22 Oct 11:37:28 11:41:36 45° 99° (E) 11:45:36 437.345 MHz
UKube-1 22 Oct 11:48:07 11:52:21 50° 287° (WNW) 11:56:33 145.840 MHz, 145.915 MHz
HO-68 22 Oct 12:09:02 12:15:01 30° 299° (WNW) 12:20:59 435.675 MHz FM
KITSAT 1 22 Oct 12:09:40 12:15:15 21° 103° (ESE) 12:20:50 435.175 FM
PANSAT 22 Oct 12:20:47 12:23:00 15° 188° (S) 12:25:13 not established
FUNcube-1 22 Oct 12:22:56 12:27:06 51° 286° (WNW) 12:31:09 145.950 - 145.970 MHz USB
Oscar 11 22 Oct 12:33:21 12:36:14 18° 294° (WNW) 12:39:07 145.825 FM, Beacon 2401.500 USB
PCSat 22 Oct 12:43:55 12:45:15 11° 39° (NE) 12:46:35 145.825 MHz
ISS 22 Oct 13:13:28 13:14:32 11° 128° (SE) 13:15:36 145.800 FM
Oscar 16 22 Oct 13:14:39 13:18:22 21° 65° (ENE) 13:22:06 437.025 USB, Beacon 2401.1428
ZACube-1 22 Oct 13:15:11 13:17:35 15° 295° (WNW) 13:19:56 437.345 MHz
SO-50 22 Oct 13:16:10 13:18:36 15° 108° (ESE) 13:21:04 436.795 FM
Uribyol 2 22 Oct 13:31:05 13:33:14 13° 60° (ENE) 13:35:23 436.500 FM
AO-Echo 22 Oct 13:33:08 13:35:39 14° 61° (ENE) 13:38:13 ?
JAS-1B 22 Oct 13:33:41 13:38:36 27° 66° (ENE) 13:43:17 435.800 - 435.900 CW/SSB
ITAMSAT 1 22 Oct 13:36:09 13:38:31 13° 60° (ENE) 13:40:53 435.822 SSB
KITSAT 1 22 Oct 14:01:39 14:09:44 79° 300° (WNW) 14:17:51 435.175 FM
Sapphire 22 Oct 14:01:45 14:06:47 37° 54° (NE) 14:11:47 437.095 MHz 1200 baud AX-25 AFSK
Oscar 19 22 Oct 14:06:56 14:12:01 62° 73° (ENE) 14:17:06 437.125 CW, 437.150 USB
AO-27 22 Oct 14:18:21 14:22:58 33° 68° (ENE) 14:27:36 436.795 MHz FM
PCSat 22 Oct 14:24:25 14:29:49 61° 59° (ENE) 14:35:09 145.825 MHz
ISS 22 Oct 14:47:28 14:50:47 72° 323° (NW) 14:54:08 145.800 FM
Oscar 16 22 Oct 14:52:23 14:57:22 47° 260° (W) 15:02:21 437.025 USB, Beacon 2401.1428
Oscar 10/S400 22 Oct 14:53:49 15:11:58 43° 155° (SSE) 15:36:29 145.825 - 145.975 CW/USB, Beacon 145.810 USB
SO-50 22 Oct 14:54:13 14:58:37 56° 305° (NW) 15:03:10 436.795 FM
UOSAT-12 22 Oct 14:54:47 14:57:02 14° 107° (ESE) 14:59:19 437.025 FM, 437.400 FM
Uribyol 2 22 Oct 15:06:45 15:11:58 83° 256° (WSW) 15:17:14 436.500 FM
AO-Echo 22 Oct 15:09:00 15:13:47 66° 259° (WSW) 15:18:46 ?
ITAMSAT 1 22 Oct 15:12:06 15:17:18 79° 257° (WSW) 15:22:33 435.822 SSB
Gurwin Techsat 1B 22 Oct 15:16:17 15:21:28 59° 73° (ENE) 15:26:42 435.225 FM
JAS-1B 22 Oct 15:23:29 15:29:10 38° 261° (W) 15:34:28 435.800 - 435.900 CW/SSB
TMSAT-1 22 Oct 15:29:17 15:34:28 57° 73° (ENE) 15:39:40 436.925 FM
AO-7 22 Oct 15:33:14 15:39:51 28° 57° (ENE) 15:46:28 29.400 - 29.500 MHz
Sapphire 22 Oct 15:45:24 15:50:04 30° 251° (WSW) 15:54:42 437.095 MHz 1200 baud AX-25 AFSK
Oscar 19 22 Oct 15:48:55 15:51:44 15° 269° (W) 15:54:33 437.125 CW, 437.150 USB
AO-27 22 Oct 15:58:00 16:02:27 29° 264° (W) 16:06:57 436.795 MHz FM
KITSAT 1 22 Oct 16:00:42 16:06:29 21° 323° (NW) 16:12:19 435.175 FM
PCSat 22 Oct 16:09:15 16:12:40 17° 256° (WSW) 16:16:05 145.825 MHz
ISS 22 Oct 16:25:53 16:27:58 15° 341° (NNW) 16:30:04 145.800 FM
UOSAT-12 22 Oct 16:32:01 16:36:36 64° 304° (NW) 16:41:18 437.025 FM, 437.400 FM
Saudisat 1A 22 Oct 16:43:03 16:45:43 16° 43° (NE) 16:48:23 436.775 MHz
Uosat F 22 Oct 16:51:30 16:56:21 51° 72° (ENE) 17:01:14 435.120 FM
Gurwin Techsat 1B 22 Oct 16:58:35 17:01:48 16° 268° (W) 17:05:03 435.225 FM
TMSAT-1 22 Oct 17:11:25 17:14:43 17° 268° (W) 17:18:03 436.925 FM
AO-7 22 Oct 17:23:45 17:31:58 68° 255° (WSW) 17:40:14 29.400 - 29.500 MHz
JAS-2 22 Oct 18:06:39 18:12:19 62° 72° (ENE) 18:18:46 435.800 - 435.900 CW/SSB, 435.910 FM
Hamsat 22 Oct 18:08:07 18:11:58 35° 72° (ENE) 18:15:48 145.90 MHz
UOSAT-12 22 Oct 18:16:44 18:17:42 11° 323° (NW) 18:18:40 437.025 FM, 437.400 FM
Saudisat 1A 22 Oct 18:21:20 18:25:44 68° 241° (WSW) 18:30:06 436.775 MHz
OPAL 22 Oct 18:25:18 18:29:54 37° 100° (E) 18:34:27 ?
Uosat F 22 Oct 18:32:11 18:35:25 17° 267° (W) 18:38:39 435.120 FM
AO-40 22 Oct 19:24:22 01:32:59 46° 182° (S) 06:01:03 Beacon 2401.320
AO-7 22 Oct 19:25:11 19:26:08 10° 273° (W) 19:27:05 29.400 - 29.500 MHz
SO-67 22 Oct 19:32:05 19:35:15 35° 74° (ENE) 19:38:25 435.3500 MHz FM
ISS 22 Oct 19:41:13 19:43:36 18° 22° (NNE) 19:45:59 145.800 FM
Hamsat 22 Oct 19:45:10 19:48:00 17° 267° (W) 19:50:50 145.90 MHz
JAS-2 22 Oct 19:54:11 19:58:04 18° 272° (W) 20:02:15 435.800 - 435.900 CW/SSB, 435.910 FM
KITSAT 1 22 Oct 20:02:36 20:06:03 13° 25° (NNE) 20:09:30 435.175 FM
OPAL 22 Oct 20:04:37 20:08:34 24° 296° (WNW) 20:12:29 ?
STRAND 1 22 Oct 20:05:27 20:10:23 44° 99° (E) 20:15:16 ?
HO-68 22 Oct 20:48:18 20:54:40 36° 64° (ENE) 21:01:03 435.675 MHz FM
SO-67 22 Oct 21:07:22 21:08:22 11° 268° (W) 21:09:23 435.3500 MHz FM
UKube-1 22 Oct 21:09:27 21:10:48 11° 62° (ENE) 21:12:09 145.840 MHz, 145.915 MHz
ISS 22 Oct 21:17:18 21:20:39 81° 221° (SW) 21:23:59 145.800 FM
FUNcube-1 22 Oct 21:45:15 21:46:14 11° 62° (ENE) 21:47:13 145.950 - 145.970 MHz USB
STRAND 1 22 Oct 21:45:22 21:49:15 22° 295° (WNW) 21:53:07 ?
SO-50 22 Oct 21:47:33 21:50:16 15° 41° (NE) 21:53:00 436.795 FM
Oscar 11 22 Oct 21:50:32 21:54:11 27° 69° (ENE) 21:57:49 145.825 FM, Beacon 2401.500 USB
KITSAT 1 22 Oct 21:56:19 22:03:57 43° 51° (NE) 22:11:32 435.175 FM
ZACube-1 22 Oct 22:32:34 22:36:43 34° 71° (ENE) 22:40:50 437.345 MHz
HO-68 22 Oct 22:35:31 22:42:12 42° 261° (W) 22:48:58 435.675 MHz FM
UKube-1 22 Oct 22:42:05 22:46:24 67° 258° (WSW) 22:50:45 145.840 MHz, 145.915 MHz
RS-15 22 Oct 22:48:45 22:59:09 49° 110° (ESE) 23:09:24 29.354 - 29.394 USB, Beacon 29.352 USB
FUNcube-1 22 Oct 23:17:21 23:21:58 78° 258° (WSW) 23:26:32 145.950 - 145.970 MHz USB
UOSAT-12 22 Oct 23:24:27 23:26:29 13° 39° (NE) 23:28:31 437.025 FM, 437.400 FM
SO-50 22 Oct 23:26:36 23:31:28 88° 239° (WSW) 23:36:22 436.795 FM
Oscar 11 22 Oct 23:26:44 23:30:17 25° 265° (W) 23:33:52 145.825 FM, Beacon 2401.500 USB
KITSAT 1 22 Oct 23:51:50 23:59:19 44° 250° (WSW) 00:06:47 435.175 FM
ZACube-1 23 Oct 00:09:35 00:13:08 22° 266° (W) 00:16:40 437.345 MHz
MaSat-1 23 Oct 00:30:40 00:34:28 31° 109° (ESE) 00:37:59 437.345 MHz
RS-15 23 Oct 01:00:59 01:11:28 49° 312° (NW) 01:21:59 29.354 - 29.394 USB, Beacon 29.352 USB
UOSAT-12 23 Oct 01:02:41 01:07:25 80° 58° (ENE) 01:12:03 437.025 FM, 437.400 FM
MaSat-1 23 Oct 02:06:59 02:10:10 21° 302° (WNW) 02:13:09 437.345 MHz
Oscar 19 23 Oct 02:20:22 02:24:26 23° 95° (E) 02:28:28 437.125 CW, 437.150 USB
AO-27 23 Oct 02:34:21 02:36:27 12° 90° (E) 02:38:33 436.795 MHz FM
UOSAT-12 23 Oct 02:46:02 02:46:51 10° 254° (WSW) 02:47:39 437.025 FM, 437.400 FM
Oscar 16 23 Oct 03:04:59 03:10:06 67° 102° (ESE) 03:15:11 437.025 USB, Beacon 2401.1428
JAS-1B 23 Oct 03:05:53 03:12:26 57° 102° (ESE) 03:20:14 435.800 - 435.900 CW/SSB
AO-Echo 23 Oct 03:17:07 03:22:14 45° 99° (E) 03:27:18 ?
RS-15 23 Oct 03:20:14 03:27:30 19° 344° (NNW) 03:34:52 29.354 - 29.394 USB, Beacon 29.352 USB
Uribyol 2 23 Oct 03:20:56 03:25:47 38° 98° (E) 03:30:36 436.500 FM
ITAMSAT 1 23 Oct 03:26:21 03:31:17 41° 99° (E) 03:36:10 435.822 SSB
Gurwin Techsat 1B 23 Oct 03:34:12 03:38:35 26° 95° (E) 03:42:56 435.225 FM
TMSAT-1 23 Oct 03:46:52 03:51:11 25° 95° (E) 03:55:28 436.925 FM
Oscar 19 23 Oct 03:59:08 04:03:51 38° 290° (WNW) 04:08:33 437.125 CW, 437.150 USB
AO-27 23 Oct 04:11:14 04:16:29 74° 286° (WNW) 04:21:40 436.795 MHz FM
Sapphire 23 Oct 04:42:26 04:47:27 41° 111° (ESE) 04:52:31 437.095 MHz 1200 baud AX-25 AFSK
Oscar 16 23 Oct 04:46:04 04:48:52 15° 298° (WNW) 04:51:40 437.025 USB, Beacon 2401.1428
AO-Echo 23 Oct 04:56:36 05:00:39 23° 295° (WNW) 05:04:42 ?
JAS-1B 23 Oct 04:57:34 05:02:48 26° 295° (WNW) 05:08:43 435.800 - 435.900 CW/SSB
Uribyol 2 23 Oct 05:00:50 05:05:02 25° 294° (WNW) 05:09:12 436.500 FM
Uosat F 23 Oct 05:01:29 05:04:46 17° 93° (E) 05:08:02 435.120 FM
PCSat 23 Oct 05:04:47 05:10:09 72° 115° (ESE) 05:15:34 145.825 MHz
ITAMSAT 1 23 Oct 05:06:24 05:10:31 24° 295° (WNW) 05:14:36 435.822 SSB
Gurwin Techsat 1B 23 Oct 05:13:44 05:18:36 38° 291° (WNW) 05:23:27 435.225 FM
JAS-2 23 Oct 05:20:13 05:22:22 11° 85° (E) 05:24:30 435.800 - 435.900 CW/SSB, 435.910 FM
TMSAT-1 23 Oct 05:26:17 05:31:11 39° 290° (WNW) 05:36:03 436.925 FM
AO-7 23 Oct 05:26:36 05:34:31 46° 101° (E) 05:42:24 29.400 - 29.500 MHz
RS-15 23 Oct 05:37:58 05:45:49 21° 21° (NNE) 05:53:49 29.354 - 29.394 USB, Beacon 29.352 USB
OPAL 23 Oct 05:38:52 05:43:57 62° 71° (ENE) 05:49:00 ?
Sapphire 23 Oct 06:26:22 06:30:59 28° 309° (NW) 06:35:39 437.095 MHz 1200 baud AX-25 AFSK
Uosat F 23 Oct 06:38:56 06:43:49 51° 288° (WNW) 06:48:41 435.120 FM
PCSat 23 Oct 06:50:26 06:54:08 18° 314° (NW) 06:57:51 145.825 MHz
JAS-2 23 Oct 07:00:45 07:08:30 68° 101° (ESE) 07:16:16 435.800 - 435.900 CW/SSB, 435.910 FM
AO-7 23 Oct 07:19:36 07:27:08 40° 298° (WNW) 07:34:41 29.400 - 29.500 MHz
STRAND 1 23 Oct 07:20:12 07:25:12 57° 72° (ENE) 07:30:15 ?
OPAL 23 Oct 07:20:16 07:23:10 15° 266° (W) 07:26:04 ?
Hamsat 23 Oct 07:30:07 07:34:20 87° 103° (ESE) 07:38:32 145.90 MHz
RS-15 23 Oct 07:50:27 08:01:24 56° 51° (NE) 08:12:45 29.354 - 29.394 USB, Beacon 29.352 USB
Saudisat 1A 23 Oct 08:26:39 08:30:44 40° 115° (ESE) 08:34:51 436.775 MHz
SO-67 23 Oct 08:28:57 08:32:20 50° 99° (E) 08:35:40 435.3500 MHz FM
JAS-2 23 Oct 08:46:44 08:52:52 27° 298° (WNW) 08:59:04 435.800 - 435.900 CW/SSB, 435.910 FM
STRAND 1 23 Oct 09:01:40 09:04:44 16° 268° (W) 09:07:50 ?
